Weather History for Wheeling, WV

Change the Weather History Date:

Saturday, February 2, 2013

  Actual Average Record
Temperature  
Mean Temperature 16 °F 30 °F  
Max Temperature 24 °F 37 °F 51 °F (2006)
Min Temperature 8 °F 23 °F -2 °F (1951)
Degree Days  
Heating Degree Days 49 35  
Month to date heating degree days 98 70  
Since 1 July heating degree days 3129 3312  
Cooling Degree Days 0    
Month to date cooling degree days 0  
Year to date cooling degree days 0  
Moisture  
Dew Point 15 °F    
Average Humidity 85    
Maximum Humidity 96    
Minimum Humidity 73    
Precipitation  
Precipitation 0.05 in 0.08 in 1.87 in (1988)
Month to date precipitation 0.05 0.15  
Sea Level Pressure  
Sea Level Pressure 30.05 in    
Wind  
Wind Speed 8 mph (SSW)    
Max Wind Speed 18 mph    
Max Gust Speed 25 mph    
Visibility 3 miles    
Events Snow    
T = Trace of Precipitation, MM = Missing Value Source: NWS Daily Summary

Daily Weather History Graph

Daily Weather History Graph

Search for Another Location

Airport:

Trip Planner

Search our weather history database for the weather conditions in past years. The results will help you decide how hot, cold, wet, or windy it might be!

Date:

Astronomy

Feb. 02, 2013 Rise Set
Actual Time 7:30 AM EST 5:42 PM EST
Civil Twilight 7:01 AM EST 6:11 PM EST
Nautical Twilight 6:29 AM EST 6:43 PM EST
Astronomical Twilight 5:57 AM EST 7:15 PM EST
Moon No Moon Rise 10:39 AM EST (2/2)
Length of Visible Light 11h 09m
Length of Day
10h 12m
Waning Gibbous, 60% of the Moon is Illuminated
Feb 2
Waning Gibbous
Feb 3
Last Quarter
Feb 10
New
Feb 17
First Quarter
Feb 25
Full

Hourly Weather History & Observations

Time (EST) Temp. Windchill Dew Point Humidity Pressure Visibility Wind Dir Wind Speed Gust Speed Precip Events Conditions
12:53 AM 9.0 °F 0.6 °F 1.9 °F 73% 30.36 in 10.0 mi SW 4.6 mph - N/A   Scattered Clouds
1:53 AM 9.0 °F -3.2 °F 1.0 °F 70% 30.34 in 10.0 mi SW 8.1 mph - N/A   Clear
2:53 AM 9.0 °F -2.2 °F 1.9 °F 73% 30.33 in 10.0 mi SSW 6.9 mph - N/A   Clear
4:53 AM 8.1 °F -2.0 °F 1.9 °F 76% 30.30 in 10.0 mi South 5.8 mph - N/A   Partly Cloudy
5:53 AM 9.0 °F -3.2 °F 3.9 °F 80% 30.29 in 10.0 mi South 8.1 mph - N/A   Overcast
7:53 AM 10.9 °F -1.8 °F 5.0 °F 77% 30.27 in 2.5 mi South 9.2 mph - 0.00 in Snow Light Snow
8:05 AM 10.4 °F -1.5 °F 6.8 °F 85% 30.19 in 4.0 mi South 8.1 mph - 0.00 in   Haze
8:13 AM 10.4 °F 0.8 °F 6.8 °F 85% 30.19 in 7.0 mi South 5.8 mph - 0.00 in   Overcast
8:53 AM 12.9 °F -0.9 °F 7.0 °F 77% 30.26 in 6.0 mi SSW 11.5 mph - 0.00 in   Haze
9:22 AM 14.0 °F 1.2 °F 8.6 °F 79% 30.16 in 4.0 mi South 10.4 mph - 0.00 in Snow Light Snow
9:37 AM 15.8 °F 1.4 °F 6.8 °F 68% 30.15 in 8.0 mi South 13.8 mph - 0.00 in   Overcast
9:53 AM 15.1 °F 0.5 °F 8.1 °F 74% 30.22 in 2.5 mi SSW 13.8 mph - 0.00 in Snow Light Snow
10:17 AM 17.6 °F 5.0 °F 8.6 °F 68% 30.13 in 6.0 mi SSW 11.5 mph 19.6 mph 0.00 in   Haze
10:51 AM 17.6 °F 3.7 °F 10.4 °F 73% 30.11 in 2.0 mi SSW 13.8 mph 21.9 mph 0.00 in Snow Light Snow
10:53 AM 17.1 °F 2.5 °F 10.0 °F 74% 30.19 in 2.5 mi SW 15.0 mph 20.7 mph 0.00 in Snow Light Snow
11:02 AM 17.6 °F 1.7 °F 10.4 °F 73% 30.11 in 4.0 mi SSW 18.4 mph 25.3 mph 0.00 in Snow Light Snow
11:12 AM 17.6 °F 5.0 °F 10.4 °F 73% 30.10 in 1.8 mi SSW 11.5 mph 23.0 mph 0.00 in Snow Light Snow
11:22 AM 19.4 °F 7.9 °F 12.2 °F 74% 30.09 in 1.2 mi SSW 10.4 mph 18.4 mph 0.00 in Snow Light Snow
11:39 AM 19.4 °F 6.0 °F 12.2 °F 74% 30.08 in 3.0 mi South 13.8 mph 21.9 mph 0.00 in Snow Light Snow
11:49 AM 19.4 °F 7.9 °F 12.2 °F 74% 30.08 in 2.0 mi South 10.4 mph 18.4 mph 0.00 in Snow Light Snow
11:53 AM 19.9 °F 7.3 °F 12.9 °F 74% 30.15 in 2.0 mi SSW 12.7 mph 18.4 mph 0.00 in Snow Light Snow
12:11 PM 19.4 °F 7.2 °F 12.2 °F 74% 30.05 in 3.0 mi SSW 11.5 mph 20.7 mph 0.00 in Snow Light Snow
12:34 PM 21.2 °F 10.9 °F 14.0 °F 74% 30.04 in 2.0 mi SSW 9.2 mph 16.1 mph 0.00 in Snow Light Snow
12:42 PM 19.4 °F 6.0 °F 14.0 °F 80% 30.03 in 1.2 mi South 13.8 mph 19.6 mph 0.00 in Snow Light Snow
12:53 PM 19.9 °F 6.2 °F 14.0 °F 78% 30.10 in 1.2 mi SSW 15.0 mph 20.7 mph 0.00 in Snow Light Snow
1:03 PM 21.2 °F 10.9 °F 14.0 °F 74% 30.01 in 3.0 mi South 9.2 mph 19.6 mph 0.00 in Snow Light Snow
1:22 PM 21.2 °F 8.3 °F 14.0 °F 74% 30.00 in 2.5 mi SSW 13.8 mph 21.9 mph 0.00 in Snow Light Snow
1:28 PM 21.2 °F 7.3 °F 14.0 °F 74% 30.00 in 1.0 mi SSW 16.1 mph 21.9 mph 0.00 in Snow Light Snow
1:36 PM 21.2 °F 8.9 °F 15.8 °F 80% 29.99 in 0.8 mi SSW 12.7 mph 21.9 mph 0.00 in Snow Light Snow
1:48 PM 21.2 °F 8.9 °F 15.8 °F 80% 29.99 in 1.2 mi SSW 12.7 mph 17.3 mph 0.00 in Snow Light Snow
1:53 PM 21.0 °F 12.4 °F 16.0 °F 81% 30.06 in 1.8 mi SSW 6.9 mph 17.3 mph 0.00 in Snow Light Snow
2:01 PM 21.2 °F 10.1 °F 15.8 °F 80% 29.98 in 2.5 mi SSW 10.4 mph 21.9 mph 0.00 in Snow Light Snow
2:21 PM 21.2 °F 10.1 °F 15.8 °F 80% 29.97 in 3.0 mi SSW 10.4 mph 20.7 mph 0.00 in Snow Light Snow
2:31 PM 21.2 °F 7.3 °F 15.8 °F 80% 29.97 in 2.0 mi South 16.1 mph 21.9 mph 0.00 in Snow Light Snow
2:40 PM 21.2 °F 9.5 °F 15.8 °F 80% 29.97 in 1.8 mi SSW 11.5 mph 18.4 mph 0.00 in Snow Light Snow
2:53 PM 21.9 °F 11.0 °F 17.1 °F 82% 30.04 in 1.5 mi SSW 10.4 mph - 0.00 in Snow Light Snow
3:08 PM 21.2 °F 9.5 °F 17.6 °F 86% 29.96 in 2.0 mi SSW 11.5 mph - 0.00 in Snow Light Snow
3:13 PM 23.0 °F 13.1 °F 17.6 °F 80% 29.96 in 1.8 mi SW 9.2 mph - 0.00 in Snow Light Snow
3:30 PM 21.2 °F 10.9 °F 17.6 °F 86% 29.96 in 2.5 mi SSW 9.2 mph - 0.00 in Snow Light Snow
3:43 PM 21.2 °F 8.3 °F 17.6 °F 86% 29.95 in 1.0 mi SSW 13.8 mph - 0.00 in Snow Light Snow
3:53 PM 21.9 °F 10.4 °F 18.0 °F 85% 30.02 in 1.0 mi South 11.5 mph - 0.00 in Snow Light Snow
4:22 PM 23.0 °F 13.9 °F 17.6 °F 80% 29.94 in 1.2 mi SSW 8.1 mph - 0.01 in Snow Light Snow
4:53 PM 23.0 °F 14.7 °F 18.0 °F 81% 30.02 in 1.5 mi SW 6.9 mph - 0.01 in Snow Light Snow
5:34 PM 23.0 °F 17.0 °F 19.4 °F 86% 29.95 in 2.0 mi SW 4.6 mph - 0.00 in Snow Light Snow
5:40 PM 23.0 °F 15.8 °F 19.4 °F 86% 29.95 in 1.5 mi SW 5.8 mph - 0.00 in Snow Light Snow
5:53 PM 23.0 °F 17.0 °F 19.9 °F 88% 30.02 in 1.8 mi SW 4.6 mph - 0.00 in Snow Light Snow
6:53 PM 23.0 °F 18.4 °F 19.9 °F 88% 30.03 in 1.5 mi SW 3.5 mph - 0.02 in Snow Light Snow
7:44 PM 23.0 °F 18.4 °F 21.2 °F 93% 29.96 in 1.8 mi WSW 3.5 mph - 0.01 in Snow Light Snow
7:53 PM 23.0 °F 17.0 °F 21.0 °F 92% 30.03 in 1.8 mi SW 4.6 mph - 0.01 in Snow Light Snow
8:05 PM 23.0 °F 17.0 °F 21.2 °F 93% 29.96 in 2.0 mi SW 4.6 mph - 0.00 in Snow Light Snow
8:15 PM 23.0 °F 18.4 °F 21.2 °F 93% 29.96 in 2.5 mi SW 3.5 mph - 0.00 in Snow Light Snow
8:41 PM 23.0 °F 17.0 °F 19.4 °F 86% 29.96 in 3.0 mi SW 4.6 mph - 0.00 in Snow Light Snow
8:53 PM 23.0 °F - 21.0 °F 92% 30.03 in 7.0 mi Calm Calm - 0.00 in   Overcast
9:01 PM 23.0 °F - 21.2 °F 93% 29.96 in 5.0 mi Calm Calm - 0.00 in Snow Light Snow
9:08 PM 23.0 °F 17.0 °F 21.2 °F 93% 29.96 in 5.0 mi SW 4.6 mph - 0.00 in Snow Light Snow
9:27 PM 23.0 °F 15.8 °F 21.2 °F 93% 29.96 in 2.5 mi SW 5.8 mph - 0.00 in Snow Light Snow
9:40 PM 23.0 °F 17.0 °F 21.2 °F 93% 29.96 in 1.8 mi SW 4.6 mph - 0.00 in Snow Light Snow
9:53 PM 23.0 °F 17.0 °F 21.0 °F 92% 30.02 in 1.8 mi SW 4.6 mph - 0.01 in Snow Light Snow
10:02 PM 23.0 °F 15.8 °F 21.2 °F 93% 29.95 in 2.0 mi SW 5.8 mph - 0.00 in Snow Light Snow
10:11 PM 23.0 °F 17.0 °F 21.2 °F 93% 29.95 in 3.0 mi SW 4.6 mph - 0.00 in Snow Light Snow
10:31 PM 23.0 °F 18.4 °F 21.2 °F 93% 29.95 in 3.0 mi SW 3.5 mph - 0.00 in Snow Light Snow
10:40 PM 23.0 °F - 21.2 °F 93% 29.95 in 4.0 mi Calm Calm - 0.00 in Snow Light Snow
10:53 PM 23.0 °F 18.4 °F 21.0 °F 92% 30.01 in 4.0 mi WSW 3.5 mph - 0.00 in Snow Light Snow
11:27 PM 23.0 °F 18.4 °F 21.2 °F 93% 29.94 in 4.0 mi WSW 3.5 mph - 0.00 in Snow Light Snow
11:34 PM 23.0 °F 18.4 °F 21.2 °F 93% 29.94 in 4.0 mi WSW 3.5 mph - 0.00 in Snow Light Snow
11:53 PM 24.1 °F 19.7 °F 21.0 °F 88% 30.00 in 4.0 mi SW 3.5 mph - 0.00 in Snow Light Snow